Regional Weather Roundup
Issued by NWS Huntsville, AL

Home | Current Version | Previous Version | Text Only | Print | Product List | Glossary On
Versions: 1 2 3 4 5 6 7 8 9 10 11 12 13 14 15 16 17 18 19 20 21 22 23 24 25 26 27 28 29 30 31 32 33 34 35 36 37 38 39 40 41 42 43 44 45 46 47 48 49 50
000
ASUS44 KHUN 051410
RWRHUN

WEATHER ROUNDUP FOR THE TENNESSEE VALLEY
NATIONAL WEATHER SERVICE HUNTSVILLE AL
900 AM CDT SAT SEP 05 2015

ALZ001>004-051500-
NORTHWEST ALABAMA

CITY           SKY/WX    TMP DP  RH WIND       PRES   REMARKS
COURTLAND HCN    N/A     75 N/A N/A CALM        N/A
RUSSELLVILLE     N/A     75 N/A N/A MISG        N/A
SHOALS AIRPORT SUNNY     78  72  81 E3        30.10S
SHOALS TVA RES   N/A     75 N/A N/A MISG        N/A
$$

ALZ005>007-016-051500-
NORTH CENTRAL ALABAMA

CITY           SKY/WX    TMP DP  RH WIND       PRES   REMARKS
CULLMAN AG STN   N/A     77 N/A N/A E3          N/A
DECATUR AP     SUNNY     77  71  82 SE7       30.10S
HUNTSVILLE AP  MOSUNNY   80  69  69 SE9       30.09F
HUN NWS/UAH      N/A     80  67  63 SE6         N/A
MERIDIANVILLE  SUNNY     73  64  73 E3        30.11S
REDSTONE ARSN  SUNNY     78  71  80 SE5       30.09S
VINEMONT AP    FAIR      77  70  78 E3        30.13R
$$

ALZ008>010-051500-
NORTHEAST ALABAMA

CITY           SKY/WX    TMP DP  RH WIND       PRES   REMARKS
ALBERTVILLE    SUNNY     77  73  88 E6        30.12R
FORT PAYNE     SUNNY     77  63  61 CALM      30.13S
SCOTTSBORO AP  LGT RAIN  77  70  78 NE6       30.13S
SCOTTSBORO HCN   N/A     73 N/A N/A MISG        N/A
VALLEY HEAD      N/A     75 N/A N/A MISG        N/A
$$

TNZ076-096-097-051500-
SOUTHEASTERN MIDDLE TENNESSEE

CITY           SKY/WX    TMP DP  RH WIND       PRES   REMARKS
TULLAHOMA      SUNNY     79  66  65 SE5       30.14R
WINCHESTER     SUNNY     79  70  73 SE8       30.13R
$$

...SURROUNDING SITES...

CITY           SKY/WX    TMP DP  RH WIND       PRES   REMARKS
ATLANTA        MOSUNNY   76  66  71 E14G22    30.15R
ANNISTON       SUNNY     78  69  73 E9        30.11S
BIRMINGHAM     MOSUNNY   80  70  71 E9        30.10R
CHATTANOOGA    SUNNY     78  69  73 CALM      30.14S
DALTON         SUNNY     73  70  88 CALM      30.15S
GADSDEN        SUNNY     77  66  69 E10       30.10S
GOLDEN TRNGL   SUNNY     81  72  74 NE5       30.05S
HALEYVILLE     FAIR      80  74  82 CALM      30.13S
JACKSON TN     SUNNY     79  73  82 CALM      30.09R
MEMPHIS        SUNNY     84  70  62 E3        30.08R
NASHVILLE      SUNNY     80  69  69 E3        30.11S
OXFORD MS      FAIR      81  70  69 E3        30.09S
ROME           SUNNY     77  67  71 E5        30.13R
SAVANNAH       SUNNY     79  32  18 CALM      30.09S
TUPELO         SUNNY     79  71  76 NE3       30.07S
TUSCALOOSA     SUNNY     82  73  74 VRB3      30.05S
$$

...GULF COAST WEATHER...

CITY           SKY/WX    TMP DP  RH WIND       PRES   REMARKS
GULFPORT       SUNNY     83  75  77 NW7       30.03R HX  90
PASCAGOULA     SUNNY     82  76  81 N7        30.03R
MOBILE         MOSUNNY   83  75  77 N6        30.04S HX  90
GULF SHORES    SUNNY     83  75  78 N3        30.03R HX  90
DESTIN         MOSUNNY   84  76  76 VRB5      30.02S HX  93
PANAMA CITY    PTSUNNY   84  76  78 NW3       30.02R HX  93
APPALACHICOLA  CLOUDY    80  77  90 N3        30.02S
$$



USA.gov is the U.S. government's official web portal to all federal, state and local government web resources and services.